Time,TemperatureF,DewpointF,PressureIn,WindDirection,WindDirectionDegrees,WindSpeedMPH,WindSpeedGustMPH,Humidity,HourlyPrecipIn,Conditions,Clouds,dailyrainin,SoftwareType,DateUTC
2017-11-22 00:00:00,31.1,28.0,29.87,NNE,13,0.0,0.0,88,0.00,,,0.00,Wunderground v.1.15,2017-11-22 05:00:00,
2017-11-22 00:10:00,31.3,28.2,29.88,NNE,13,0.0,0.0,88,0.00,,,0.00,Wunderground v.1.15,2017-11-22 05:10:00,
2017-11-22 00:30:00,32.1,28.9,29.86,NNE,13,0.0,0.0,88,0.00,,,0.00,Wunderground v.1.15,2017-11-22 05:30:00,
2017-11-22 00:40:00,33.2,29.5,29.87,NW,321,0.0,0.0,86,0.00,,,0.00,Wunderground v.1.15,2017-11-22 05:40:00,
2017-11-22 00:45:00,33.9,29.9,29.87,NW,321,0.0,0.0,85,0.00,,,0.00,Wunderground v.1.15,2017-11-22 05:45:00,
2017-11-22 00:55:00,34.9,30.3,29.87,NW,321,0.0,0.0,83,0.00,,,0.00,Wunderground v.1.15,2017-11-22 05:55:00,
2017-11-22 01:10:00,36.0,30.4,29.87,NW,321,0.0,0.0,80,0.00,,,0.00,Wunderground v.1.15,2017-11-22 06:10:00,
2017-11-22 01:20:00,37.3,30.4,29.87,WNW,295,0.0,0.0,76,0.00,,,0.00,Wunderground v.1.15,2017-11-22 06:20:00,
2017-11-22 01:25:00,38.0,30.4,29.87,WNW,288,0.0,0.0,74,0.00,,,0.00,Wunderground v.1.15,2017-11-22 06:25:00,
2017-11-22 01:30:00,38.7,30.8,29.88,WNW,282,0.0,0.0,73,0.00,,,0.00,Wunderground v.1.15,2017-11-22 06:30:00,
2017-11-22 01:40:00,38.0,30.1,29.88,WNW,282,0.0,0.0,73,0.00,,,0.00,Wunderground v.1.15,2017-11-22 06:40:00,
2017-11-22 01:50:00,38.0,30.8,29.89,WNW,282,0.0,0.0,75,0.00,,,0.00,Wunderground v.1.15,2017-11-22 06:50:00,
2017-11-22 02:00:00,38.8,31.2,29.90,West,280,0.0,0.0,74,0.00,,,0.00,Wunderground v.1.15,2017-11-22 07:00:00,
2017-11-22 02:10:00,39.1,31.8,29.90,West,278,0.0,0.0,75,0.00,,,0.00,Wunderground v.1.15,2017-11-22 07:10:00,
2017-11-22 02:20:00,37.4,30.2,29.91,SSW,193,1.0,1.0,75,0.00,,,0.00,Wunderground v.1.15,2017-11-22 07:20:00,
2017-11-22 02:25:00,36.1,29.9,29.90,SSW,193,0.0,1.0,78,0.00,,,0.00,Wunderground v.1.15,2017-11-22 07:25:00,
2017-11-22 02:35:00,35.0,30.7,29.90,SSW,193,0.0,0.0,84,0.00,,,0.00,Wunderground v.1.15,2017-11-22 07:35:00,
2017-11-22 02:45:00,34.9,32.0,29.90,SSW,193,0.0,0.0,89,0.00,,,0.00,Wunderground v.1.15,2017-11-22 07:45:00,
2017-11-22 03:00:00,35.9,33.3,29.90,SSW,194,0.0,0.0,90,0.00,,,0.00,Wunderground v.1.15,2017-11-22 08:00:00,
2017-11-22 03:10:00,36.4,33.7,29.90,SSW,209,0.0,0.0,90,0.00,,,0.01,Wunderground v.1.15,2017-11-22 08:10:00,
2017-11-22 03:20:00,36.6,33.9,29.89,SW,220,0.0,0.0,90,0.00,,,0.01,Wunderground v.1.15,2017-11-22 08:20:00,
2017-11-22 03:30:00,36.7,34.0,29.90,West,267,0.0,0.0,90,0.00,,,0.01,Wunderground v.1.15,2017-11-22 08:30:00,
2017-11-22 03:35:00,36.8,34.1,29.90,West,267,0.0,0.0,90,0.00,,,0.01,Wunderground v.1.15,2017-11-22 08:35:00,
2017-11-22 03:45:00,36.9,34.5,29.90,West,273,0.0,0.0,91,0.00,,,0.01,Wunderground v.1.15,2017-11-22 08:45:00,
2017-11-22 04:00:00,36.5,33.6,29.91,West,272,0.0,0.0,89,0.00,,,0.01,Wunderground v.1.15,2017-11-22 09:00:00,
2017-11-22 04:10:00,35.9,33.0,29.91,West,272,0.0,0.0,89,0.00,,,0.01,Wunderground v.1.15,2017-11-22 09:10:00,
2017-11-22 04:25:00,35.6,33.0,29.91,West,272,0.0,0.0,90,0.00,,,0.01,Wunderground v.1.15,2017-11-22 09:25:00,
2017-11-22 04:40:00,35.8,33.2,29.90,West,272,0.0,0.0,90,0.00,,,0.01,Wunderground v.1.15,2017-11-22 09:40:00,
2017-11-22 04:55:00,36.1,33.2,29.90,West,272,0.0,0.0,89,0.00,,,0.01,Wunderground v.1.15,2017-11-22 09:55:00,
2017-11-22 05:00:00,36.1,32.9,29.90,West,272,0.0,0.0,88,0.00,,,0.01,Wunderground v.1.15,2017-11-22 10:00:00,
2017-11-22 05:10:00,35.7,32.8,29.90,West,272,0.0,0.0,89,0.00,,,0.01,Wunderground v.1.15,2017-11-22 10:10:00,
2017-11-22 05:20:00,35.5,32.9,29.90,West,272,0.0,0.0,90,0.00,,,0.01,Wunderground v.1.15,2017-11-22 10:20:00,
2017-11-22 05:30:00,35.7,33.3,29.91,West,272,0.0,0.0,91,0.00,,,0.01,Wunderground v.1.15,2017-11-22 10:30:00,
2017-11-22 05:40:00,36.0,33.6,29.91,West,272,0.0,0.0,91,0.00,,,0.01,Wunderground v.1.15,2017-11-22 10:40:00,
2017-11-22 05:50:00,36.1,33.7,29.91,West,272,0.0,0.0,91,0.00,,,0.01,Wunderground v.1.15,2017-11-22 10:50:00,
2017-11-22 06:25:00,36.1,34.3,29.91,West,273,0.0,0.0,93,0.00,,,0.02,Wunderground v.1.15,2017-11-22 11:25:00,
2017-11-22 06:35:00,36.5,34.7,29.92,West,272,0.0,0.0,93,0.00,,,0.02,Wunderground v.1.15,2017-11-22 11:35:00,
2017-11-22 06:45:00,36.4,34.3,29.92,West,272,0.0,0.0,92,0.00,,,0.02,Wunderground v.1.15,2017-11-22 11:45:00,
2017-11-22 06:55:00,36.5,34.4,29.92,West,272,0.0,0.0,92,0.00,,,0.02,Wunderground v.1.15,2017-11-22 11:55:00,
2017-11-22 07:00:00,36.5,34.4,29.92,West,272,0.0,0.0,92,0.00,,,0.02,Wunderground v.1.15,2017-11-22 12:00:00,
2017-11-22 07:10:00,36.6,34.5,29.92,West,275,0.0,0.0,92,0.00,,,0.02,Wunderground v.1.15,2017-11-22 12:10:00,
2017-11-22 07:20:00,37.0,35.2,29.93,West,274,0.0,0.0,93,0.00,,,0.02,Wunderground v.1.15,2017-11-22 12:20:00,
2017-11-22 07:30:00,37.5,35.9,29.93,WSW,255,0.0,0.0,94,0.00,,,0.02,Wunderground v.1.15,2017-11-22 12:30:00,
2017-11-22 07:40:00,37.5,35.4,29.94,SW,214,1.0,2.0,92,0.00,,,0.02,Wunderground v.1.15,2017-11-22 12:40:00,
2017-11-22 07:50:00,36.5,34.1,29.94,SW,214,0.0,0.0,91,0.04,,,0.03,Wunderground v.1.15,2017-11-22 12:50:00,
2017-11-22 08:00:00,36.2,34.4,29.94,SW,214,0.0,0.0,93,0.00,,,0.03,Wunderground v.1.15,2017-11-22 13:00:00,
2017-11-22 08:10:00,36.6,35.0,29.94,SW,214,0.0,0.0,94,0.00,,,0.04,Wunderground v.1.15,2017-11-22 13:10:00,
2017-11-22 08:20:00,36.9,35.3,29.94,SW,214,0.0,0.0,94,0.05,,,0.05,Wunderground v.1.15,2017-11-22 13:20:00,
2017-11-22 08:25:00,37.0,35.4,29.94,SW,214,0.0,0.0,94,0.05,,,0.05,Wunderground v.1.15,2017-11-22 13:25:00,